Regional Weather Roundup
Issued by NWS

Home | Current Version | Previous Version | Text Only | Print | Product List | Glossary On
Versions: 1 2 3 4 5 6 7 8 9 10 11 12 13 14 15 16 17 18 19 20 21 22 23 24 25 26 27 28 29 30 31 32 33 34 35 36 37 38 39 40 41 42 43 44 45 46 47 48 49 50
000
ASUS44 KFWD 120515
RWRTX
NORTH TEXAS HOURLY WEATHER ROUNDUP
NATIONAL WEATHER SERVICE FORT WORTH TX
1100 PM CST THU FEB 11 2016

NOTE: "FAIR" INDICATES FEW OR NO CLOUDS BELOW 12,000 FEET WITH NO
SIGNIFICANT WEATHER AND/OR OBSTRUCTIONS TO VISIBILITY.

TXZ118-119-120600-
DALLAS/FORT WORTH METROPLEX

CITY           SKY/WX    TMP DP  RH WIND       PRES   REMARKS
DFW AIRPORT    PTCLDY    54  36  50 N7        30.11S
DALLAS LOVE    PTCLDY    57  36  45 CALM      30.11S
FTW MEACHAM    PTCLDY    58  35  42 NE12      30.11F
DAL-EXECUTIVE  CLEAR     57  36  45 NE6       30.11R
FTW-ALLIANCE   PTCLDY    46  35  65 N3        30.13R
FTW-NAS-JRB    CLEAR     55  37  50 NW5       30.12F
FTW-SPINKS     CLEAR     51  37  58 N3        30.13R
ARLINGTON      PTCLDY    52  38  58 N6        30.11S
GRAND PRAIRIE  PTCLDY    56  38  50 N8        30.13R
ADDISON        CLEAR     59  36  41 NE8       30.14S
MESQUITE       PTCLDY    54  39  57 N7        30.12R
LANCASTER      PTCLDY    54  32  42 N3        30.12R
$$

TXZ091>094-102>105-117-120-121-131>134-120600-
NORTH CENTRAL TEXAS

CITY           SKY/WX    TMP DP  RH WIND       PRES   REMARKS
SHRMAN/DENISON CLEAR     50  32  51 NE7       30.16R
GAINESVILLE    CLEAR     47  32  56 CALM      30.17R
BOWIE          PTCLDY    50  32  49 NE3       30.16R
BRIDGEPORT     CLEAR     46  36  68 CALM      30.16R
DECATUR        PTCLDY    53  32  45 NE6       30.14S
DENTON         PTCLDY    50  35  56 N7        30.14R
MCKINNEY       CLEAR     51  35  54 N8        30.13S
GREENVILLE     CLEAR     50  36  57 CALM      30.13S
ROCKWALL       CLEAR     55  37  50 NE3       30.11S
TERRELL        CLEAR     49  38  65 NE3       30.12R
WAXAHACHIE     PTCLDY    58  36  43 NE6       30.12S
CLEBURNE       CLEAR     57  36  44 N7        30.12S
GRANBURY       CLEAR     51  37  59 W5        30.13S
$$

TXZ083>090-098>101-113>116-127>130-139>142-154-155-120600-
WESTERN NORTH TEXAS

CITY           SKY/WX    TMP DP  RH WIND       PRES   REMARKS
WICHITA FALLS  PTCLDY    42  33  70 N8        30.17R WCI  37
WF-KICKAPOO    PTCLDY    48  35  61 N6        30.18R
VERNON         CLOUDY    46  31  57 N6        30.20R
ABILENE        PTCLDY    47  33  58 CALM      30.17R
ABILENE-DYESS  PTCLDY    46  31  56 CALM      30.16R
BRECKENRIDGE   CLEAR     48  34  57 N5        30.15R
GRAHAM         CLEAR     49  34  56 CALM      30.13S
MINERAL WELLS  PTCLDY    51  34  52 CALM      30.12R
STEPHENVILLE   PTCLDY    54  35  47 N7        30.15S
COMANCHE       PTCLDY    55  33  43 NW7       30.14R
COLEMAN        CLEAR     55  31  40 N8        30.15R
$$

TXZ143>147-156>162-174-175-120600-
CENTRAL TEXAS

CITY           SKY/WX    TMP DP  RH WIND       PRES   REMARKS
WACO           PTCLDY    50  36  58 CALM      30.10R
WACO-TSTC      CLEAR     50  36  57 CALM      30.11R
WACO-MCGREGOR  PTCLDY    58  36  43 S5        30.10R
HILLSBORO      CLEAR     58  36  43 SE3       30.11S
CORSICANA      PTCLDY    61  38  42 S5        30.11F
MEXIA          CLEAR     57  39  50 S9        30.11R
HEARNE         PTCLDY    57  44  62 SE7       30.14R
CAMERON        PTCLDY    62  45  54 S15       30.12R
TEMPLE         PTCLDY    60  37  42 S14       30.11S
KILLEEN        CLEAR     65  35  31 S10       30.10S
KILLEEN-SKYLRK CLEAR     62  36  37 S8        30.11S
FORT HOOD      CLEAR     64  35  32 S7        30.09R
GATESVILLE     PTCLDY    63  34  34 CALM      30.12R
HAMILTON       PTCLDY    57  35  44 CALM      30.12R
LAMPASAS       CLEAR     62  34  35 W5        30.10R
$$

TXZ095>097-106>112-122>126-135>138-148>153-164>167-120600-
EAST TEXAS

CITY           SKY/WX    TMP DP  RH WIND       PRES   REMARKS
PARIS          PTCLDY    50  34  53 NE10      30.16R
SULPHUR SPRNGS CLEAR     51  42  71 CALM      30.15S
MOUNT PLEASANT CLEAR     51  38  59 E8        30.15S
GILMER         CLEAR     55  39  56 CALM      30.13S
MINEOLA        CLEAR     48  39  71 CALM      30.13S
TYLER          CLEAR     55  36  48 CALM      30.12S
LONGVIEW       PTCLDY    47  38  71 E3        30.12R
MARSHALL       PTCLDY    53  38  57 CALM      30.15S
ATHENS         PTCLDY    46  41  81 CALM      30.11R
PALESTINE      PTCLDY    62  42  48 S5        30.14R
JACKSONVILLE   CLEAR     62  41  47 S7        30.14S
HENDERSON      PTCLDY    48  41  77 CALM      30.14R
CENTER         FAIR      59  44  57 S6        30.12S
NACOGDOCHES    CLEAR     46  41  81 CALM      30.13S
LUFKIN         PTCLDY    59  45  59 S7        30.14R
$$

SUPPLEMENTAL OBSERVATIONS (CENTRAL)

CITY           SKY/WX    TMP DP  RH WIND       PRES   REMARKS
CADDO GRASSLND   N/A     45  34  65 NE1         N/A
PAT MAYSE LAKE   N/A     52  34  50 NE3         N/A
LAKE LIMESTONE   N/A     61  45  55 S8          N/A
MCGREGOR         N/A     52  34  50 SW3         N/A
TEMPLE           N/A     59  36  41 S10         N/A
$$

SUPPLEMENTAL OBSERVATIONS (WEST)

CITY           SKY/WX    TMP DP  RH WIND       PRES   REMARKS
MILLERS CREEK    N/A     45  39  81 S2          N/A
POSSUM KINGDOM   N/A     54  28  37 NW3         N/A
LBJ GRASSLAND    N/A     55  32  41 NE7         N/A
GRANBURY         N/A     50  34  53 W3          N/A
COMANCHE         N/A     55  30  38 NW8         N/A
HAMBY            N/A     41  32  70 CALM        N/A
IVIE RESERVOIR   N/A     50  32  50 NW2         N/A
COLORADO BEND    N/A     59  30  33 W6          N/A
$$

SUPPLEMENTAL OBSERVATIONS (EAST)

CITY           SKY/WX    TMP DP  RH WIND       PRES   REMARKS
CLARKSVILLE      N/A     48  34  57 E5          N/A
CADDO LAKE       N/A     52  37  58 E1          N/A
GILMER           N/A     54  37  54 SE1         N/A
HENDERSON        N/A     48  39  71 S1          N/A
LUFKIN           N/A     55  45  67 MISG        N/A
S SABINE NF      N/A     54  45  71 S1          N/A
$$

SUPPLEMENTAL OBSERVATIONS ARE A COLLECTION OF AUTOMATED INSTRUMENTS
THAT ARE MAINTAINED BY A VARIETY OF FEDERAL AND STATE AGENCIES.
CERTAIN ELEMENTS...SUCH AS HUMIDITY VALUES AND SUSTAINED WIND
SPEEDS...MAY BE APPROXIMATED.





USA.gov is the U.S. government's official web portal to all federal, state and local government web resources and services.